Lid_Strength_Index
5 3 2 2 2 2 2 2 2 2 1 1 1 2 2 2 2 3 4 4 8 11 10 8 7 8 8 8 10 7 8 8 9 12 13 13 14 12 12 12 13 13 14 14 14 15 17 10 10 13 10 7 8 8
4 2 2 2 2 2 2 2 2 2 2 1 2 2 2 2 2 2 5 4 5 9 8 6 5 5 5 5 7 6 7 8 7 10 10 10 12 10 11 16 9 14 12 15 13 15 11 10 10 9 9 10 8 9
3 2 2 2 2 2 2 2 2 2 1 2 2 2 2 2 2 3 4 5 6 8 8 7 7 4 3 3 3 7 6 5 6 5 8 9 11 10 13 12 11 9 8 12 13 11 11 10 9 10 10 10 9 9
2 2 2 2 2 2 2 2 2 2 2 2 2 2 2 2 2 3 5 5 6 8 10 8 4 6 3 3 3 3 4 4 4 5 8 9 11 8 11 11 11 9 9 12 13 12 11 10 10 10 10 9 9 9
3 2 2 2 2 2 2 2 3 2 3 2 2 2 2 3 3 3 4 4 4 7 10 9 6 5 4 4 5 4 4 5 7 8 9 10 8 9 9 9 10 9 11 12 14 11 13 12 10 10 11 11 10 9
3 2 2 2 2 2 2 2 2 2 3 3 2 3 3 3 3 4 7 4 4 4 9 11 6 6 5 5 6 6 6 6 7 9 9 8 6 9 11 12 9 8 8 8 10 9 10 10 10 9 10 10 10 9
3 2 2 2 2 2 2 2 2 2 2 3 3 3 3 3 3 6 7 5 4 4 8 10 9 7 6 6 7 7 6 8 8 10 11 11 11 10 12 14 11 9 7 7 6 6 7 7 9 7 8 8 8 8
3 2 2 2 2 2 2 2 2 2 3 3 3 3 4 4 5 5 4 3 3 6 7 10 9 8 6 8 9 7 9 9 9 10 10 11 11 12 14 12 10 9 9 9 7 5 6 5 5 6 7 8 9 9
3 2 2 2 2 2 2 2 1 2 2 3 3 3 3 4 4 5 4 4 3 6 9 9 11 11 6 7 8 9 8 12 9 12 12 12 13 13 10 10 10 10 10 10 8 7 6 6 6 6 7 7 8 9
3 2 2 2 2 2 2 2 1 2 3 3 3 4 5 4 3 3 5 6 6 6 6 11 7 10 7 7 8 9 9 10 12 10 10 13 14 8 7 7 8 8 8 9 9 9 8 8 6 6 7 7 7 7
3 2 2 2 2 2 2 1 1 2 3 3 4 4 4 3 4 5 7 8 8 10 7 8 7 9 5 9 9 7 10 9 13 11 11 12 14 9 7 7 7 7 8 8 7 7 7 7 7 6 5 6 6 6
3 2 2 2 2 2 2 2 2 2 1 2 3 0 2 4 6 8 9 7 8 10 7 8 7 7 6 5 8 8 11 10 14 8 11 14 10 8 7 7 7 6 7 7 7 8 7 7 7 6 6 5 4 4
3 2 2 2 2 2 2 2 2 2 3 1 3 5 6 6 11 11 12 10 9 6 5 6 8 6 6 6 8 9 10 12 7 11 13 11 7 6 6 7 8 6 6 6 7 7 8 8 8 8 7 6 5 5
3 2 2 2 2 2 1 1 1 2 2 5 6 10 8 8 8 7 7 7 5 5 5 5 7 8 7 8 7 10 9 9 12 14 13 9 7 6 5 5 8 8 7 6 6 6 7 8 9 9 9 8 8 8
3 2 2 2 2 1 1 1 2 1 3 5 5 11 8 5 5 5 4 5 4 4 5 6 6 6 7 8 8 8 11 13 12 13 10 7 6 5 5 6 5 6 7 7 7 7 6 7 9 9 9 8 8 7
2 4 1 3 2 2 3 2 2 1 2 4 4 7 5 6 6 5 5 5 3 4 4 5 7 8 9 8 9 10 12 14 11 8 6 5 5 5 5 5 5 5 4 5 7 7 7 7 7 8 8 8 8 8
3 1 3 2 2 2 3 0 1 3 4 4 6 4 5 5 5 5 4 4 3 5 7 6 8 9 7 9 10 9 10 8 7 6 5 4 5 5 4 5 5 4 4 4 4 6 7 7 6 7 9 8 8 8
1 -1 1 2 3 1 0 1 2 4 6 4 6 5 4 4 4 4 3 3 4 5 5 7 5 8 9 10 10 7 6 6 5 5 5 4 4 4 4 4 4 3 3 4 5 4 4 7 8 8 8 7 8 8
2 2 2 2 3 3 3 2 2 6 5 4 4 4 4 4 3 2 3 3 3 3 4 5 7 9 8 7 7 6 6 6 6 5 4 4 3 3 3 3 4 4 3 5 6 6 5 4 6 6 7 9 10 9
3 3 2 2 2 3 4 4 1 5 6 4 4 4 4 4 3 3 3 3 4 4 6 7 7 6 6 5 4 4 4 4 5 6 5 5 5 4 4 4 5 4 5 4 6 6 6 7 6 5 6 7 8 9
2 1 1 2 1 2 3 4 4 4 4 5 4 4 4 4 4 4 4 3 5 5 6 5 5 4 3 3 3 3 3 3 4 4 5 6 5 4 4 4 3 4 5 5 6 6 6 7 6 6 6 7 7 7
0 2 0 0 3 2 4 2 3 3 4 4 5 5 6 6 6 5 3 5 6 5 4 4 4 3 4 4 3 3 2 2 3 3 4 4 5 5 4 4 5 5 4 5 5 6 6 6 6 5 6 6 6 6
2 1 2 2 4 6 7 2 5 4 7 6 5 6 6 6 5 3 6 5 5 3 3 3 2 2 3 3 3 2 2 3 3 3 3 4 4 4 4 4 4 5 5 5 4 4 5 6 6 6 6 5 5 6
4 3 5 6 5 8 3 5 5 5 5 6 7 8 7 6 4 6 7 6 4 3 3 3 3 3 3 3 4 3 2 3 4 4 4 4 5 4 4 4 4 4 4 4 4 4 4 4 5 6 6 5 5 6
7 7 6 12 5 6 7 7 6 6 7 6 7 8 7 7 9 9 9 7 5 4 3 3 3 3 4 3 3 3 2 3 4 4 4 3 4 4 4 4 4 4 4 4 4 4 4 4 4 4 5 5 6 6
12 6 8 6 6 6 6 8 8 9 9 9 8 6 6 8 10 10 8 6 4 4 4 3 4 3 3 3 3 3 3 2 2 3 3 3 4 5 5 5 5 5 3 3 3 4 4 4 4 4 4 5 6 5
9 7 5 3 5 6 8 7 6 7 9 9 8 7 8 11 11 8 5 4 4 3 2 1 1 2 3 3 3 2 1 1 2 2 2 3 3 3 4 5 5 4 2 3 3 3 4 4 4 4 4 4 4 5
5 5 7 5 7 6 8 8 8 8 7 6 7 8 9 9 9 5 4 2 2 1 1 1 1 1 2 1 2 2 2 2 2 2 2 3 2 2 2 2 2 3 2 2 3 3 4 4 4 4 4 4 4 4
5 4 5 7 7 7 8 8 7 6 4 5 6 7 7 5 4 3 2 1 1 1 2 2 2 2 2 2 2 2 2 3 4 5 6 6 5 4 2 2 2 2 1 1 3 3 3 4 4 4 3 3 3 3
5 4 6 6 7 8 7 5 5 4 3 3 4 4 4 4 2 1 1 1 2 2 2 2 2 3 4 4 4 4 3 3 4 5 6 6 5 3 3 2 2 2 2 2 1 2 3 3 3 3 3 4 4 4
3 4 5 5 6 5 4 3 3 3 4 5 4 5 6 4 2 1 1 1 1 1 2 3 3 3 4 4 4 5 5 4 4 5 5 4 4 3 3 3 2 2 2 2 2 2 3 3 3 4 4 4 4 4
4 5 6 6 5 4 3 4 4 5 5 6 6 5 5 5 5 3 2 2 2 3 3 3 4 4 3 3 3 4 5 5 5 5 5 5 5 4 4 4 3 3 2 2 3 2 2 3 3 3 4 4 4 4
4 4 4 4 5 4 4 4 4 6 6 6 6 5 5 5 6 3 1 1 2 3 3 3 3 3 1 2 4 4 5 5 7 7 7 7 8 7 5 5 4 4 4 4 3 3 3 3 4 4 4 4 4 4